Hourly Weather Bolshie Lyzki

Today, 2 August, Monday

Time Temperature Precipitation Wind Pressure Humidity
00:00 +20°C° 0 mm 2 mps 739 mmHg 81%
01:00 +19°C° 0 mm 2 mps 739 mmHg 84%
02:00 +19°C° 0 mm 2 mps 738 mmHg 92%
03:00 +19°C° 0.2 mm 3 mps 738 mmHg 93%
04:00 +19°C° 0.2 mm 3 mps 738 mmHg 95%
05:00 +19°C° 0.2 mm 3 mps 737 mmHg 96%
06:00 +20°C° 0 mm 4 mps 737 mmHg 91%
07:00 +22°C° 0 mm 4 mps 737 mmHg 87%
08:00 +23°C° 0 mm 5 mps 736 mmHg 81%
09:00 +26°C° 0 mm 6 mps 736 mmHg 73%
10:00 +28°C° 0 mm 7 mps 735 mmHg 65%
11:00 +31°C° 0 mm 8 mps 735 mmHg 57%
12:00 +32°C° 0 mm 8 mps 734 mmHg 52%
13:00 +32°C° 0 mm 9 mps 734 mmHg 48%
14:00 +33°C° 0 mm 9 mps 733 mmHg 43%
15:00 +31°C° 0 mm 9 mps 734 mmHg 49%
16:00 +28°C° 0 mm 9 mps 734 mmHg 55%
17:00 +26°C° 0 mm 9 mps 735 mmHg 60%
18:00 +23°C° 0 mm 7 mps 735 mmHg 65%
19:00 +21°C° 0 mm 6 mps 736 mmHg 70%
20:00 +20°C° 0 mm 5 mps 736 mmHg 75%
21:00 +19°C° 0 mm 4 mps 737 mmHg 79%
22:00 +18°C° 0 mm 4 mps 737 mmHg 84%
23:00 +17°C° 0 mm 4 mps 738 mmHg 89%

Tomorrow, 3 August, Tuesday

Time Temperature Precipitation Wind Pressure Humidity
00:00 +15°C° 0 mm 4 mps 738 mmHg 87%
01:00 +15°C° 0 mm 4 mps 738 mmHg 85%
02:00 +16°C° 0 mm 3 mps 739 mmHg 83%
03:00 +16°C° 0 mm 3 mps 739 mmHg 86%
04:00 +14°C° 0 mm 3 mps 739 mmHg 90%
05:00 +13°C° 0 mm 3 mps 739 mmHg 94%
06:00 +16°C° 0 mm 3 mps 740 mmHg 84%
07:00 +17°C° 0 mm 4 mps 740 mmHg 75%
08:00 +19°C° 0 mm 4 mps 741 mmHg 66%
09:00 +20°C° 0 mm 4 mps 741 mmHg 60%
10:00 +21°C° 0 mm 4 mps 741 mmHg 54%
11:00 +22°C° 0 mm 4 mps 741 mmHg 48%
12:00 +22°C° 0.1 mm 5 mps 741 mmHg 48%
13:00 +22°C° 0.1 mm 5 mps 741 mmHg 48%
14:00 +22°C° 0.1 mm 5 mps 741 mmHg 47%
15:00 +22°C° 0 mm 5 mps 741 mmHg 48%
16:00 +22°C° 0 mm 4 mps 741 mmHg 48%
17:00 +21°C° 0 mm 4 mps 741 mmHg 48%
18:00 +20°C° 0 mm 4 mps 742 mmHg 52%
19:00 +19°C° 0 mm 3 mps 742 mmHg 56%
20:00 +18°C° 0 mm 3 mps 742 mmHg 61%
21:00 +17°C° 0 mm 3 mps 743 mmHg 65%
22:00 +16°C° 0 mm 3 mps 743 mmHg 69%
23:00 +14°C° 0 mm 3 mps 743 mmHg 73%

Day after tomorrow, 4 August, Wednesday

Time Temperature Precipitation Wind Pressure Humidity
00:00 +14°C° 0 mm 2 mps 743 mmHg 77%
01:00 +14°C° 0 mm 2 mps 743 mmHg 80%
02:00 +13°C° 0 mm 2 mps 744 mmHg 84%
03:00 +13°C° 0 mm 2 mps 744 mmHg 86%
04:00 +13°C° 0 mm 2 mps 744 mmHg 88%
05:00 +13°C° 0 mm 2 mps 744 mmHg 90%
06:00 +15°C° 0 mm 2 mps 744 mmHg 82%
07:00 +17°C° 0 mm 3 mps 745 mmHg 73%
08:00 +19°C° 0 mm 3 mps 745 mmHg 65%
09:00 +20°C° 0 mm 3 mps 745 mmHg 60%
10:00 +22°C° 0 mm 3 mps 745 mmHg 55%
11:00 +24°C° 0 mm 3 mps 745 mmHg 50%
12:00 +23°C° 0 mm 4 mps 745 mmHg 47%
13:00 +25°C° 0 mm 4 mps 745 mmHg 45%
14:00 +25°C° 0 mm 4 mps 745 mmHg 42%
15:00 +25°C° 0 mm 3 mps 745 mmHg 43%
16:00 +24°C° 0 mm 2 mps 745 mmHg 45%
17:00 +24°C° 0 mm 2 mps 745 mmHg 46%
18:00 +22°C° 0 mm 1 mps 745 mmHg 51%
19:00 +21°C° 0 mm 1 mps 745 mmHg 56%
20:00 +19°C° 0 mm 1 mps 745 mmHg 61%
21:00 +19°C° 0 mm 1 mps 745 mmHg 62%
22:00 +18°C° 0 mm 1 mps 745 mmHg 63%
23:00 +18°C° 0 mm 1 mps 745 mmHg 65%

5 August, Thursday

Time Temperature Precipitation Wind Pressure Humidity
00:00 +18°C° 0 mm 1 mps 745 mmHg 65%
01:00 +16°C° 0 mm 1 mps 745 mmHg 65%
02:00 +16°C° 0 mm 2 mps 745 mmHg 66%
03:00 +16°C° 0 mm 2 mps 745 mmHg 67%
04:00 +16°C° 0 mm 2 mps 745 mmHg 68%
05:00 +16°C° 0 mm 2 mps 745 mmHg 69%
06:00 +16°C° 0.2 mm 1 mps 745 mmHg 73%
07:00 +16°C° 0.2 mm 1 mps 745 mmHg 78%
08:00 +16°C° 0.2 mm 1 mps 745 mmHg 83%
09:00 +17°C° 0.2 mm 2 mps 745 mmHg 80%
10:00 +18°C° 0.2 mm 3 mps 745 mmHg 77%
11:00 +19°C° 0.2 mm 3 mps 745 mmHg 75%
12:00 +20°C° 0.1 mm 3 mps 744 mmHg 69%
13:00 +23°C° 0.1 mm 2 mps 744 mmHg 64%
14:00 +24°C° 0.1 mm 2 mps 744 mmHg 58%
15:00 +24°C° 0.4 mm 2 mps 744 mmHg 62%
16:00 +23°C° 0.4 mm 2 mps 743 mmHg 66%
17:00 +22°C° 0.4 mm 3 mps 743 mmHg 70%
18:00 +20°C° 0.1 mm 3 mps 743 mmHg 77%
19:00 +19°C° 0.1 mm 3 mps 743 mmHg 83%
20:00 +18°C° 0.1 mm 3 mps 743 mmHg 89%
21:00 +17°C° 0 mm 3 mps 743 mmHg 92%
22:00 +16°C° 0 mm 3 mps 743 mmHg 94%
23:00 +16°C° 0 mm 3 mps 743 mmHg 97%

6 August, Friday

Time Temperature Precipitation Wind Pressure Humidity
00:00 +14°C° 0 mm 3 mps 742 mmHg 97%
01:00 +14°C° 0 mm 3 mps 742 mmHg 97%
02:00 +14°C° 0 mm 3 mps 742 mmHg 97%
03:00 +14°C° 0 mm 3 mps 742 mmHg 96%
04:00 +14°C° 0 mm 4 mps 742 mmHg 96%
05:00 +14°C° 0 mm 4 mps 742 mmHg 95%
06:00 +16°C° 0 mm 5 mps 742 mmHg 90%
07:00 +17°C° 0 mm 5 mps 742 mmHg 85%
08:00 +19°C° 0 mm 6 mps 741 mmHg 80%
09:00 +20°C° 0 mm 6 mps 741 mmHg 79%
10:00 +20°C° 0 mm 5 mps 741 mmHg 77%
11:00 +21°C° 0 mm 5 mps 741 mmHg 75%
12:00 +23°C° 0.1 mm 5 mps 741 mmHg 67%
13:00 +26°C° 0.1 mm 5 mps 740 mmHg 59%
14:00 +28°C° 0.1 mm 6 mps 740 mmHg 51%
15:00 +29°C° 0 mm 6 mps 740 mmHg 50%
16:00 +29°C° 0 mm 5 mps 739 mmHg 49%
17:00 +29°C° 0 mm 5 mps 739 mmHg 48%
18:00 +27°C° 0.3 mm 5 mps 739 mmHg 58%
19:00 +25°C° 0.3 mm 4 mps 739 mmHg 68%
20:00 +22°C° 0.3 mm 3 mps 739 mmHg 78%
21:00 +21°C° 0.5 mm 3 mps 739 mmHg 83%
22:00 +20°C° 0.5 mm 2 mps 739 mmHg 89%
23:00 +19°C° 0.5 mm 2 mps 739 mmHg 94%

7 August, Saturday

Time Temperature Precipitation Wind Pressure Humidity
00:00 +19°C° 0.2 mm 2 mps 739 mmHg 94%
01:00 +18°C° 0.2 mm 2 mps 739 mmHg 94%
02:00 +18°C° 0.2 mm 2 mps 740 mmHg 94%
03:00 +18°C° 0 mm 2 mps 739 mmHg 94%
04:00 +18°C° 0 mm 2 mps 739 mmHg 94%
05:00 +18°C° 0 mm 2 mps 739 mmHg 95%
06:00 +19°C° 0 mm 2 mps 739 mmHg 90%
07:00 +20°C° 0 mm 3 mps 740 mmHg 86%
08:00 +21°C° 0 mm 3 mps 740 mmHg 82%
09:00 +22°C° 0 mm 3 mps 740 mmHg 75%
10:00 +25°C° 0 mm 3 mps 740 mmHg 69%
11:00 +26°C° 0 mm 4 mps 740 mmHg 63%
12:00 +26°C° 0 mm 4 mps 741 mmHg 58%
13:00 +27°C° 0 mm 4 mps 741 mmHg 54%
14:00 +28°C° 0 mm 4 mps 741 mmHg 49%
15:00 +27°C° 0 mm 4 mps 741 mmHg 51%
16:00 +27°C° 0 mm 3 mps 742 mmHg 53%
17:00 +27°C° 0 mm 3 mps 742 mmHg 55%
18:00 +25°C° 0 mm 2 mps 742 mmHg 61%
19:00 +23°C° 0 mm 2 mps 742 mmHg 66%
20:00 +22°C° 0 mm 1 mps 743 mmHg 72%
21:00 +21°C° 0 mm 1 mps 743 mmHg 74%
22:00 +20°C° 0 mm 1 mps 743 mmHg 76%
23:00 +20°C° 0 mm 1 mps 744 mmHg 78%
Show more

We Need Your Consent

Meteoprog and our Service Providers may store and access personal data such as cookies, device identifiers or other similar technologies on your device and process such data to personalise content and ads, as well as provide social media features and to analyse the traffic.

  • Store and/or access information on your device

    Cookies, device identifiers or other information can be stored or accessed on your device for the purposes indicated above.

  • Personalised ads and content, ad and content measurement, audience insights, and products development

    Ads and content can be personalised based on a profile. More data can be added to better personalise ads and content. Ad and content performance can be measured. Insights about the audience who saw the ads and content can be derived. Such data can be used to develop or improve user’s experience, systems and software.

By clicking ‘I Agree’ you will allow the use of indicated cookies, device identifiers, web beacons or other similar technologies. Your settings can be changed in the browser on your device.

For certain purposes, legitimate interests may be relied on, rather than consent. You can read more about this in our Privacy and Cookie Policy.